Location: Le Vaud
(46.4779°N, 6.2346°E)
Time: 17:06:44
(UTC+00:00)

Cosmos 1500 Rocket - Pass Details

Date: 18 February 2020
Orbit: 602 x 632 km, 82.5° (Epoch: 05 April)

Event Time Altitude Azimuth Distance (km) Brightness Sun altitude
Rises 05:12:15 0° 343° (NNW) 2,929 6.8 -14.8°
Reaches altitude 10° 05:14:37 10° 336° (NNW) 2,013 5.9 -14.4°
Maximum altitude 05:18:43 38° 269° (W) 964 4.0 -13.7°
Drops below altitude 10° 05:22:47 10° 201° (SSW) 1,981 6.0 -13.0°
Sets 05:25:06 0° 194° (SSW) 2,876 6.9 -12.6°
